HST 1 20580U 90037B 26126.80281318 .00006107 00000+0 19475-3 0 9994 2 20580 28.4762 3.3129 0002116 48.0743 312.0033 15.30306882782229 POLAR 1 23802U 96013A 26126.44477536 .00000082 00000+0 00000+0 0 9999 2 23802 79.8122 227.5372 6428755 210.5133 87.3106 1.29845910144313 SWAS 1 25560U 98071A 26126.92996925 .00002932 00000+0 18975-3 0 9999 2 25560 69.8970 333.8908 0007952 298.9521 61.0845 15.09340197491043 CXO 1 25867U 99040B 26129.70737146 .00000792 00000+0 00000+0 0 9991 2 25867 55.5364 117.7999 7900392 310.4423 0.0547 0.37799268 17171 XMM-NEWTON 1 25989U 99066A 26127.46061807 .00000093 00000+0 00000+0 0 9993 2 25989 64.6994 283.5063 4686974 65.6184 0.1744 0.50129140 22792 TERRA 1 25994U 99068A 26126.93550409 .00000345 00000+0 79343-4 0 9994 2 25994 97.9487 178.1109 0002563 33.1626 69.5357 14.61070186403588 CLUSTER II-FM7 (SAMBA) 1 26410U 00041A 26127.97661055 .00003266 00000+0 00000+0 0 9990 2 26410 149.7422 43.6467 9004324 260.3696 0.5530 0.44839797 20127 CLUSTER II-FM8 (TANGO) 1 26464U 00045B 26127.89079676 .00003383 00000+0 00000+0 0 9996 2 26464 150.0155 44.7227 9009209 261.2826 0.6203 0.44408145 20118 ODIN 1 26702U 01007A 26126.59234154 .00091722 00000+0 92499-3 0 9991 2 26702 97.3942 165.2259 0000612 245.5904 114.5291 15.65082210382872 TIMED 1 26998U 01055B 26126.92706977 .00001091 00000+0 10283-3 0 9996 2 26998 74.0674 318.0914 0001267 194.0929 166.0220 14.95194540324659 CORIOLIS 1 27640U 03001A 26126.97500393 .00000097 00000+0 65996-4 0 9990 2 27640 98.7139 134.4877 0013476 336.3458 23.7098 14.19933353208375 SORCE 1 27651U 03004A 26126.49473490 .00002565 00000+0 19540-3 0 9994 2 27651 39.9891 139.5041 0016058 114.8708 245.3758 15.03484979265629 MOST 1 27843U 03031D 26126.95869544 .00000055 00000+0 45488-4 0 9990 2 27843 98.7058 135.2586 0010160 18.1927 341.9612 14.21313826184852 SCISAT 1 1 27858U 03036A 26126.76181034 .00000723 00000+0 97053-4 0 9998 2 27858 73.9300 253.6438 0008065 319.8914 40.1666 14.81403628225312 SWIFT 1 28485U 04047A 26126.34332597 .00041880 00000+0 40502-3 0 9999 2 28485 20.5514 146.6806 0002842 102.2879 257.7885 15.64544196180299 HINODE (SOLAR-B) 1 29479U 06041A 26126.28341033 .00000716 00000+0 13152-3 0 9991 2 29479 98.0570 143.0520 0018781 63.6225 296.6906 14.68562757 48726 SHIJIAN-6 02A (SJ-6 02A) 1 29505U 06046A 26126.98919323 .00005729 00000+0 29777-3 0 9995 2 29505 97.6394 167.7547 0001467 289.9839 70.1236 15.16478988 66024 SHIJIAN-6 02B (SJ-6 02B) 1 29506U 06046B 26126.95679758 .00001633 00000+0 13169-3 0 9996 2 29506 97.7146 156.2722 0011145 197.4747 162.6095 15.01257181 64554 FGRST (GLAST) 1 33053U 08029A 26126.38466281 .00002821 00000+0 10048-3 0 9996 2 33053 25.5810 134.6819 0008136 190.5873 169.4494 15.23721384989458 SDO 1 36395U 10005A 26126.38492755 -.00000059 00000+0 00000+0 0 9995 2 36395 34.5661 86.9732 0000885 31.4158 142.6328 1.00272815 59647 CRYOSAT 2 1 36508U 10013A 26126.93616030 .00000112 00000+0 27076-4 0 9991 2 36508 92.0307 267.2859 0002653 88.5812 271.5699 14.51897056852091 X-SAT 1 37389U 11015C 26126.94457840 -.00000051 00000+0 -43464-5 0 9999 2 37389 98.3496 105.9395 0015221 102.2746 258.0140 14.25193301781809 GCOM-W1 (SHIZUKU) 1 38337U 12025A 26126.83035853 .00000470 00000+0 11431-3 0 9999 2 38337 98.2002 68.0186 0001480 101.0498 317.6522 14.57085793743012 NUSTAR 1 38358U 12031A 26126.91668981 .00006258 00000+0 33664-3 0 9994 2 38358 6.0278 343.6079 0008747 219.4709 118.6646 15.08416369 1301 NEOSSAT 1 39089U 13009D 26126.25805184 .00000148 00000+0 66060-4 0 9996 2 39089 98.4171 307.2896 0011305 17.8218 342.3362 14.35811902690724 BRITE-AUSTRIA 1 39091U 13009F 26126.06854134 .00000178 00000+0 75122-4 0 9999 2 39091 98.3987 306.5489 0010378 12.9960 347.1492 14.36525257691005 IRIS 1 39197U 13033A 26126.61422275 .00001038 00000+0 12508-3 0 9995 2 39197 97.9359 326.0185 0025906 94.7775 265.6399 14.85799965694203 HISAKI (SPRINT-A) 1 39253U 13049A 26126.88558340 .00000123 00000+0 82525-4 0 9998 2 39253 29.7196 69.9860 0136577 42.0754 319.0216 13.55539485625819 CASSIOPE 1 39265U 13055A 26126.98166992 .00023875 -53074-6 27428-3 0 9993 2 39265 80.9133 116.6321 0301772 200.5649 158.3230 15.22319672661392 STSAT-3 1 39422U 13066G 26126.95874253 .00002595 00000+0 19974-3 0 9999 2 39422 97.6180 97.5412 0010004 158.6168 201.5477 15.02513178678012 SWARM B 1 39451U 13067A 26126.88609840 .00002917 00000+0 10459-3 0 9999 2 39451 87.7462 354.8613 0002587 99.3500 260.8042 15.28311639676938 SWARM A 1 39452U 13067B 26126.91373073 .00009734 00000+0 17232-3 0 9990 2 39452 87.3325 71.5589 0003593 87.9842 272.1830 15.50118475699853 SWARM C 1 39453U 13067C 26126.91365909 .00009956 00000+0 17625-3 0 9992 2 39453 87.3326 70.1402 0003592 87.7758 272.3914 15.50120480699817 BRITE-CA1 (TORONTO) 1 40020U 14033L 26126.93076207 .00000814 00000+0 12961-3 0 9992 2 40020 97.9679 256.6352 0079673 49.7321 311.0817 14.72620223636142 OCO 2 1 40059U 14035A 26126.95321865 .00000402 00000+0 99369-4 0 9992 2 40059 98.1999 68.8808 0001319 87.7917 272.3433 14.57076794630043 BRITE-PL2 (HEWELIUSZ) 1 40119U 14049B 26126.86242568 .00002402 00000+0 22803-3 0 9996 2 40119 97.9051 238.5595 0012656 243.5123 116.4800 14.94443472635270 MMS 1 1 40482U 15011A 26126.91668981 -.00000523 00000+0 00000+0 0 9990 2 40482 71.5155 349.3629 8355755 166.4369 48.7501 0.28351535 1382 MMS 2 1 40483U 15011B 26126.91668981 -.00000524 00000+0 00000+0 0 9992 2 40483 71.5170 349.3642 8356574 166.4429 48.7355 0.28351358 1382 MMS 3 1 40484U 15011C 26126.91668981 -.00000523 00000+0 00000+0 0 9992 2 40484 71.5198 349.3688 8355798 166.4372 48.7361 0.28351319 1381 MMS 4 1 40485U 15011D 26126.91668981 -.00000524 00000+0 00000+0 0 9994 2 40485 71.5154 349.3652 8355301 166.4447 48.7250 0.28351503 1380 ASTROSAT 1 40930U 15052A 26126.91903915 .00001576 00000+0 11031-3 0 9990 2 40930 5.9967 92.3708 0007882 169.7003 190.3286 14.82436204573697 DAMPE 1 41173U 15078A 26126.98500519 .00001493 00000+0 52920-4 0 9999 2 41173 97.4570 132.2520 0010776 216.1548 143.8965 15.30684018578241 PISAT 1 41784U 16059B 26126.93309289 .00000936 00000+0 16717-3 0 9997 2 41784 97.8184 129.1609 0028499 340.3076 19.7027 14.68910629513681 HXMT (HUIYAN) 1 42758U 17034A 26126.95145763 .00004087 00000+0 20564-3 0 9996 2 42758 43.0152 52.5837 0032916 244.7890 114.9544 15.18105807491398 FLYING LAPTOP 1 42831U 17042G 26126.98711257 .00002994 00000+0 23904-3 0 9993 2 42831 97.4511 284.1592 0017707 264.1987 95.7219 15.00880437480277 ZHANGHENG 1-01 (CSES-1) 1 43194U 18015C 26126.95111317 .00006378 00000+0 29115-3 0 9995 2 43194 97.6846 291.7960 0017429 50.4982 309.7791 15.20836339458371 SALSAT 1 46495U 20068K 26126.92876227 .00006820 00000+0 24320-3 0 9993 2 46495 97.8866 127.5035 0011680 88.8107 271.4470 15.29197943309057 IXPE 1 49954U 21121A 26127.00002315 .00013534 00000+0 75447-3 0 9992 2 49954 0.2311 269.1902 0007250 178.0377 253.2909 15.09883785 5847